SCP
0 0 0 0 0 0 -0 0 -0 -0 0 0 0 0 0 0 0 0 0 -0 -0 -0 -0 -0 -0 -0 -0 -0 -0 -0 -0 -0 -0 -0 -0 -0 -0 -0 -0 0 0 0 0 -0 -0 -0 -0 -0 -0
0 0 0 0 0 0 0 -0 -0 -0 0 0 0 0 0 0 0 -0 0 -0 -0 -0 -0 -0 -0 -0 -0 -0 -0 -0 -0 -0 -0 -0 -0 -0 -0 -0 0 0 0 0 0 0 -0 -0 0 0 -0
0 0 0 0 0 0 0 -0 0 0 0 0 0 0 0 0 0 0 0 -0 -0 -0 -0 -0 -0 -0 -0 -0 -0 -0 -0 -0 -0 -0 -0 -0 -0 -0 -0 0 0 0 -0 -0 -0 -0 0 -0 0
0 0 0 0 0 0 -0 -0 0 0 0 0 0 0 0 0 0 0 -0 -0 -0 -0 -0 -0 -0 -0 -0 -0 -0 -0 -0 -0 -0 -0 -0 -0 -0 -0 -0 -0 0 0 0 -0 -0 -0 0 -0 -0
0 0 0 0 0 0 0 -0 0 0 0 0 0 0 1 1 -0 0 -0 -0 -0 -0 -0 -0 -0 -0 -0 -0 -0 -0 -0 -0 -0 -0 -0 -0 -0 -0 -0 -0 -0 -0 0 -0 -0 -0 0 0 -0
0 0 0 0 0 0 0 0 0 0 0 0 0 0 1 1 0 0 0 0 -0 -0 -0 -0 -0 -0 -0 -0 -0 -0 -0 -0 -0 -0 -0 -0 -0 -0 -0 -0 -0 -0 -0 -0 -0 -0 -0 0 -0
0 0 0 0 0 0 -0 -0 0 0 0 0 0 0 1 1 0 0 0 0 0 -0 -0 -0 -0 -0 -0 -0 -0 -0 -0 -0 -0 -0 -0 -0 -0 -0 -0 -0 -0 -0 -0 -0 -0 -0 -0 0 -0
0 0 0 0 0 0 0 0 0 0 0 0 0 0 0 1 0 0 0 0 0 0 0 -0 -0 -0 -0 0 -0 -0 -0 -0 -0 -0 -0 -0 -0 -0 -0 -0 -0 -0 -0 -0 -0 -0 0 0 0
0 0 0 0 0 0 0 0 0 0 0 0 0 1 2 1 0 1 1 1 1 0 0 0 -0 -0 0 0 0 -0 -0 -0 -0 -0 -0 -0 -0 -0 -0 -0 -0 -0 -0 -0 -0 -0 0 0 0
0 0 0 0 0 0 0 0 0 0 0 0 0 0 1 0 0 0 0 0 1 0 0 0 0 0 0 0 0 0 0 0 0 0 -0 0 0 -0 -0 -0 -0 -0 -0 -0 -0 0 0 0 0
0 0 0 0 0 0 0 0 0 0 0 0 0 0 1 1 0 1 0 0 1 0 0 0 0 0 0 0 0 0 0 0 0 0 0 0 0 0 0 -0 -0 -0 -0 0 0 0 0 0 -0
0 0 0 0 0 0 0 0 0 0 0 0 0 0 0 1 1 1 0 0 0 0 0 0 0 0 0 0 0 0 0 0 0 0 0 0 0 0 0 0 0 0 0 0 0 0 0 -0 -0
0 0 0 0 0 0 0 0 0 0 0 0 0 0 0 0 1 0 0 1 1 1 1 0 0 0 0 1 0 0 0 0 0 0 0 0 0 0 0 0 0 0 0 0 0 0 0 0 0
0 0 0 0 0 0 0 0 0 0 0 0 0 0 0 0 0 0 0 0 1 1 1 1 0 0 0 0 0 0 0 0 0 0 0 0 0 0 0 0 0 0 0 0 0 0 0 0 0
0 0 0 0 0 0 0 0 0 0 0 0 0 0 0 0 0 0 0 1 1 1 1 2 1 1 0 0 1 1 0 0 0 0 0 0 0 0 0 0 0 0 0 0 0 0 0 0 0
0 0 0 0 0 0 0 0 0 0 0 0 0 0 0 0 0 0 0 1 0 2 1 2 2 2 1 0 1 1 1 0 0 0 1 0 0 0 0 0 0 0 0 0 0 0 0 0 0
0 0 0 0 0 0 0 0 0 0 0 0 0 0 0 0 0 0 0 0 1 1 2 2 2 2 2 1 1 1 1 1 1 1 1 1 1 0 1 0 0 0 0 1 0 0 0 0 0
0 0 0 0 0 0 0 0 0 0 0 0 0 0 0 0 0 0 0 0 1 1 2 3 3 3 2 2 1 1 1 1 1 1 1 1 1 1 0 1 1 1 1 1 1 1 1 1 0
0 0 0 0 0 0 0 0 0 0 0 0 0 0 0 0 0 0 0 0 0 2 2 4 4 3 3 3 2 1 1 1 1 1 1 1 1 1 1 1 1 1 1 1 1 1 1 1 1
0 0 0 0 0 0 0 0 0 0 0 0 0 0 0 0 0 0 0 0 1 2 3 4 5 4 4 3 2 2 2 1 1 1 1 2 2 2 2 1 1 1 1 1 2 1 1 1 2
0 0 0 0 0 0 0 0 0 0 0 0 0 0 0 0 0 0 0 0 1 5 7 3 5 4 4 3 3 2 2 2 2 2 1 2 2 3 2 2 2 2 2 2 2 2 2 1 2
0 0 0 0 0 0 0 0 0 0 0 0 0 0 0 0 0 0 0 0 0 3 4 6 3 5 4 3 2 2 2 2 3 2 3 3 3 3 3 2 3 3 3 2 3 3 2 3 2
0 0 0 0 0 0 0 0 0 0 0 0 0 0 0 0 0 0 0 0 0 0 0 2 2 5 4 2 2 2 2 3 3 4 4 3 3 3 3 3 3 3 4 3 4 3 3 3 2
0 0 0 0 0 0 0 0 0 0 0 -0 0 0 0 0 0 0 0 0 0 0 0 0 0 0 0 2 3 3 4 4 4 5 5 6 5 4 3 4 4 5 4 5 4 4 3 3 3
0 0 0 0 0 0 0 0 0 0 0 0 0 0 0 0 0 0 0 0 0 0 0 0 0 0 0 0 0 5 5 5 4 5 6 5 7 8 5 4 5 6 4 5 5 5 3 3 4
0 0 0 0 0 0 0 0 0 0 0 -0 0 0 0 0 0 0 0 0 0 0 0 0 0 0 0 0 0 0 5 6 6 4 4 4 8 8 9 6 6 5 5 5 6 4 5 4 4
0 0 0 0 0 0 0 0 0 0 0 0 0 0 0 0 0 0 0 0 0 0 0 0 0 0 0 0 0 0 0 3 5 5 6 4 6 7 10 9 6 6 5 5 5 6 4 5 4
0 0 0 0 0 0 0 0 0 0 0 0 0 0 0 0 0 0 0 0 0 0 0 0 0 0 0 0 0 3 2 1 4 8 7 7 5 8 7 7 6 5 5 5 5 6 5 5 5
0 0 0 0 0 0 0 0 0 0 0 0 0 0 0 0 0 0 0 0 0 0 0 0 0 0 1 1 0 0 1 7 4 5 6 6 5 5 8 8 6 7 4 4 5 5 5 5 4
0 0 0 0 0 0 0 0 0 0 0 0 0 0 0 0 0 0 0 0 0 0 0 0 0 0 0 0 1 3 2 2 3 6 5 6 6 6 5 7 6 6 5 4 4 3 3 1 0
Wind_Speed_500mb
17 17 24 24 13 15 33 36 42 47 4 8 19 21 27 29 28 26 56 39 46 56 56 54 52 51 49 47 44 40 37 34 32 29 28 29 30 32 32 31 27 24 22 19 18 22 24 27 28
20 10 22 25 18 25 29 39 48 45 33 20 10 21 23 43 37 43 49 52 49 58 58 55 53 52 50 47 44 40 37 34 33 30 29 30 29 30 31 28 26 23 22 20 21 22 25 27 28
17 14 26 13 26 31 32 48 44 13 24 9 1 12 9 33 44 47 56 57 51 62 57 54 53 51 50 48 44 39 36 35 34 32 30 30 30 28 28 27 25 22 21 22 22 23 24 26 29
18 27 24 22 41 42 51 47 10 18 18 3 16 13 19 31 29 35 67 57 51 63 59 55 52 50 49 47 44 40 36 35 34 32 31 30 29 28 27 25 24 23 22 22 22 22 24 25 29
32 26 26 34 44 47 44 54 12 2 10 5 11 26 32 31 34 40 66 59 54 60 57 55 52 50 47 45 44 41 38 36 34 32 32 31 29 27 26 25 23 22 22 22 22 22 24 25 29
36 38 29 34 47 46 45 66 21 6 14 16 15 32 22 29 44 58 59 53 52 58 58 57 53 50 47 44 43 42 40 38 35 33 32 30 29 27 25 24 23 22 22 22 23 22 23 24 24
34 26 39 45 46 44 48 58 15 15 20 29 23 11 25 33 47 63 57 52 51 55 58 59 57 52 47 43 41 41 41 39 36 34 33 31 29 28 25 23 23 22 22 22 22 22 23 22 21
46 27 49 45 41 51 50 40 32 25 32 15 9 2 27 47 48 59 56 54 54 55 55 62 59 57 53 48 44 41 41 40 38 36 34 32 30 28 27 26 25 23 22 22 22 22 21 21 20
42 29 36 54 52 39 58 13 18 17 37 13 13 15 23 37 49 58 59 58 59 56 52 66 64 61 58 54 50 46 43 42 41 39 37 36 34 32 30 27 26 24 24 24 23 22 21 20 19
37 28 56 44 43 43 55 43 25 27 34 24 16 13 19 36 48 58 63 63 62 60 56 72 68 65 62 58 55 52 49 47 46 44 42 40 37 34 31 30 27 27 26 26 25 25 23 21 18
43 49 41 51 65 66 55 48 19 31 33 40 33 27 25 35 47 55 57 61 60 56 55 73 72 68 65 62 60 58 55 52 50 47 45 42 38 34 34 35 34 33 31 29 28 26 24 21 18
42 65 60 59 67 57 44 45 42 27 35 33 46 47 35 37 45 53 58 60 60 57 51 66 74 72 68 55 60 62 59 57 54 52 49 47 41 36 39 37 38 37 35 33 30 29 25 22 20
50 56 63 66 65 63 60 44 37 47 53 41 38 23 28 25 41 48 56 59 61 60 60 58 73 73 71 59 54 63 61 60 57 56 53 51 49 44 39 36 32 38 39 38 34 30 26 25 22
67 58 58 61 60 64 47 43 36 57 54 53 45 44 32 31 37 47 61 63 68 66 68 64 66 73 72 70 58 54 58 51 51 54 56 56 55 49 46 45 45 33 32 28 35 27 27 26 33
70 56 50 48 56 53 58 43 52 60 53 60 61 59 52 52 48 49 56 68 75 76 71 75 67 68 74 79 63 58 60 57 48 50 48 47 60 55 52 49 49 38 31 35 27 30 31 34 30
54 53 49 51 52 59 51 55 57 62 60 66 64 58 65 64 61 62 55 64 67 77 76 76 77 74 71 81 73 69 63 63 55 53 56 54 50 61 55 50 53 48 45 45 41 41 41 41 31
44 43 59 58 51 41 45 68 54 49 55 71 71 67 62 61 71 69 60 58 70 69 80 83 79 81 76 75 84 69 67 63 62 58 61 63 58 57 58 58 53 53 53 51 50 46 45 39 33
50 61 52 58 56 50 51 53 48 52 39 52 73 67 69 66 69 66 63 54 60 70 76 88 83 78 77 76 74 77 65 69 67 61 60 64 64 57 68 60 59 55 58 58 56 51 49 48 41
54 53 61 47 44 56 50 54 48 43 58 54 58 53 37 59 74 67 59 64 58 70 67 90 87 78 79 79 81 75 82 72 72 69 63 63 67 64 60 71 63 63 66 65 60 56 52 45 42
58 59 60 49 48 45 51 62 53 45 48 56 52 45 48 59 52 70 74 66 68 61 74 84 87 77 79 81 80 81 71 75 71 71 71 71 72 73 66 67 73 70 71 69 64 62 62 61 55
55 54 48 53 44 45 39 57 51 52 43 52 61 53 51 59 50 42 61 65 72 64 62 78 85 80 78 81 73 67 64 59 66 71 75 77 78 80 73 68 71 74 78 77 72 70 69 64 62
50 46 50 48 42 36 2 31 42 39 36 38 50 56 51 54 52 50 40 46 61 68 62 66 72 86 83 73 77 75 73 76 76 76 73 75 78 81 79 73 75 78 79 80 78 72 74 67 72
47 44 47 39 42 34 40 27 34 36 40 45 37 42 44 54 69 63 54 40 44 59 59 71 66 68 70 69 70 70 77 75 71 70 71 72 74 75 76 77 76 80 85 86 84 78 79 77 80
53 48 47 34 19 27 43 27 26 34 40 51 45 70 76 69 73 62 54 44 30 29 56 55 67 83 81 69 71 76 77 77 69 69 73 72 77 76 77 78 80 84 84 92 91 85 81 82 82
34 38 18 9 11 12 40 32 38 29 39 43 39 20 36 73 69 61 51 39 26 27 21 25 53 64 62 74 80 72 83 84 88 72 72 74 76 81 87 85 87 88 90 91 92 90 88 86 85
36 33 16 22 11 32 36 38 43 45 44 58 14 22 16 20 20 20 9 7 15 19 25 24 22 33 57 62 70 81 67 81 86 86 90 89 75 84 87 89 86 90 88 88 96 93 96 91 89
33 37 38 34 14 10 15 21 48 35 41 52 43 28 30 30 15 21 18 9 4 8 11 15 22 26 26 34 53 59 68 78 80 82 71 80 73 84 90 86 89 89 89 89 92 96 93 98 93
3 12 10 11 13 19 13 29 22 16 21 34 20 32 33 26 22 20 19 20 15 8 9 17 28 29 29 29 34 27 57 66 67 69 73 73 77 67 69 80 88 87 88 85 89 95 93 94 92
9 5 10 7 5 10 10 22 22 22 26 33 34 37 29 25 21 18 15 14 15 14 12 14 16 14 19 28 41 36 21 38 45 52 60 63 66 73 75 74 77 84 79 78 87 90 92 93 92
23 14 7 8 9 7 7 9 27 28 29 27 30 26 19 18 14 13 11 9 10 11 11 11 12 14 12 12 16 27 41 40 30 41 49 54 64 67 64 76 81 83 78 78 87 93 95 98 98
Wind_Direction_500mb
267 296 315 283 250 232 260 254 250 271 19 5 21 336 349 91 1 116 143 160 181 158 158 159 159 157 156 160 165 166 165 157 150 146 142 141 143 138 135 134 134 136 135 136 130 126 125 122 120
273 277 256 269 241 246 250 240 258 250 94 67 17 311 302 97 131 134 128 170 185 162 160 161 162 159 159 162 167 167 167 164 156 151 149 148 147 146 143 142 140 142 139 140 136 134 129 126 122
278 278 272 238 238 242 254 248 233 149 93 96 213 227 285 101 118 134 141 172 176 162 162 162 162 162 162 164 167 170 169 167 162 157 154 154 152 151 149 148 145 143 139 140 142 137 132 131 130
264 257 245 261 248 233 248 271 32 60 95 116 242 168 86 100 124 145 152 169 166 161 164 162 163 164 164 166 167 171 172 169 168 163 160 158 157 156 154 153 151 149 147 144 142 138 136 134 135
252 258 246 247 242 254 260 251 99 359 352 130 262 253 126 106 132 144 153 168 161 159 164 164 165 166 166 166 169 172 173 172 173 169 166 165 163 162 160 159 157 155 153 150 148 145 143 138 142
254 234 250 247 247 251 249 265 131 195 270 227 234 264 100 134 139 147 155 162 164 165 162 166 167 168 167 168 171 173 174 175 177 175 173 172 169 168 168 167 164 163 160 162 158 155 155 152 146
244 251 245 251 261 256 244 248 220 197 242 234 219 288 131 152 145 151 160 159 163 178 170 169 169 170 169 170 172 175 177 178 179 180 179 179 177 175 175 176 173 172 172 172 170 168 170 170 168
250 247 258 254 251 258 261 237 182 209 229 92 135 332 169 144 149 152 161 162 167 187 177 173 173 173 172 173 175 178 181 182 183 185 185 185 185 184 184 184 183 181 182 185 183 183 184 185 186
249 261 247 245 251 256 265 230 162 215 245 189 207 87 106 140 151 156 159 165 174 190 185 179 178 178 177 177 178 181 185 187 188 189 191 190 192 192 193 193 192 191 191 193 195 198 199 200 201
234 242 243 247 255 260 272 272 197 220 231 248 187 117 154 159 163 166 166 168 179 193 193 186 184 183 182 183 183 185 188 191 193 194 195 196 198 199 199 203 201 201 203 203 204 206 208 211 213
249 239 243 250 260 272 270 303 214 228 215 225 206 171 177 176 177 177 179 181 183 190 198 190 188 189 186 189 188 190 192 195 197 199 200 200 203 200 204 208 208 211 210 212 214 217 217 216 225
229 251 253 248 263 274 277 271 291 259 261 233 227 178 174 185 189 187 188 187 187 189 199 193 193 192 190 193 194 197 198 201 202 204 204 204 200 210 209 216 216 216 218 220 222 225 226 221 183
233 237 240 259 266 269 275 277 257 273 274 247 263 180 166 197 200 202 199 195 192 192 197 202 197 197 191 188 205 203 205 208 208 211 213 207 202 212 213 216 230 220 221 221 226 230 225 227 215
238 244 246 237 241 260 261 266 258 254 264 275 266 248 222 212 233 210 204 203 196 199 198 207 202 201 194 185 210 205 200 211 212 215 218 212 209 207 217 200 227 237 224 223 225 229 228 235 228
245 250 242 240 239 234 257 251 246 246 251 256 257 258 245 236 222 232 213 208 203 200 197 207 206 205 201 195 200 210 197 206 214 213 224 221 212 203 221 210 210 222 216 229 221 225 213 239 237
248 239 247 236 228 235 237 247 239 239 241 251 248 238 243 243 240 231 227 213 211 195 196 209 207 210 207 201 194 209 198 196 216 215 218 233 218 209 219 220 207 211 216 217 219 220 222 225 232
234 238 228 239 232 219 223 244 252 245 244 228 237 240 242 237 230 228 219 218 211 205 197 206 211 210 210 207 202 205 207 205 200 218 212 226 233 222 211 221 216 215 211 217 222 222 219 228 223
219 223 231 227 226 222 223 239 250 253 261 249 234 229 234 237 243 225 221 215 214 215 202 204 210 210 213 210 206 205 207 206 211 207 221 218 232 230 214 221 213 220 214 218 221 218 225 223 233
235 232 230 243 235 224 239 234 229 223 254 260 232 236 257 238 224 234 220 213 218 210 209 200 206 209 211 209 207 204 208 209 210 211 215 221 228 234 227 217 219 213 222 220 222 224 219 227 229
242 237 245 240 235 245 229 234 228 218 219 236 253 200 241 258 244 225 226 221 208 213 210 197 203 211 215 214 210 207 210 212 219 217 216 222 227 233 233 225 221 218 222 226 222 225 221 219 223
236 245 243 254 255 250 229 258 240 215 223 243 232 243 220 239 259 247 223 222 202 204 208 199 203 216 220 221 209 211 209 217 216 225 223 220 225 233 236 232 226 222 224 230 229 223 225 223 224
244 250 247 252 253 247 41 260 246 224 217 230 243 243 218 229 252 264 268 236 199 201 209 200 207 212 216 219 218 208 210 210 216 226 231 229 231 235 241 236 232 223 227 231 234 228 228 224 222
248 253 260 262 247 264 252 243 249 234 225 236 227 232 226 226 245 260 264 256 207 214 216 218 189 196 218 217 217 217 215 218 219 221 226 233 239 242 242 242 235 230 222 232 232 231 227 229 229
230 235 253 260 291 260 225 237 243 240 231 225 221 223 226 211 214 228 244 249 249 207 213 218 223 228 224 217 227 227 218 218 221 221 222 224 231 242 242 245 242 238 229 227 232 231 233 231 231
230 236 223 258 222 235 237 223 239 248 262 279 287 294 11 209 205 212 225 231 232 252 254 235 227 228 236 229 221 234 232 228 225 222 223 225 226 227 242 245 242 239 239 229 231 228 232 233 231
215 216 234 211 220 240 226 231 234 236 267 270 336 65 51 37 109 125 143 230 247 264 263 265 240 226 222 226 229 230 231 233 233 236 231 228 229 228 234 242 244 243 240 238 228 230 229 233 231
259 235 217 253 275 305 269 246 242 240 224 246 252 147 72 75 93 80 71 62 27 341 325 300 278 249 231 238 240 243 238 235 238 234 235 232 232 236 232 235 243 244 242 239 233 228 227 229 231
164 7 255 162 215 232 240 233 243 250 271 232 112 87 87 86 72 66 56 43 32 357 351 305 282 273 259 248 244 256 246 236 238 234 233 234 233 234 243 239 241 242 239 238 234 230 228 229 231
13 94 342 4 279 251 228 211 88 48 32 63 70 70 67 70 78 73 50 44 30 14 13 344 305 285 270 266 257 247 224 232 236 238 241 241 240 236 233 238 238 242 238 239 233 231 230 228 228
68 17 61 341 34 353 332 261 60 50 64 64 65 48 51 36 43 51 67 49 30 8 350 332 337 314 281 259 256 258 255 236 227 240 244 246 239 238 237 238 239 240 239 237 232 229 227 228 228
Wind_Speed_850mb
17 17 24 24 13 15 33 36 42 47 4 8 19 21 27 29 28 26 56 39 46 56 56 54 52 51 49 47 44 40 37 34 32 29 28 29 30 32 32 31 27 24 22 19 18 22 24 27 28
20 10 22 25 18 25 29 39 48 45 33 20 10 21 23 43 37 43 49 52 49 58 58 55 53 52 50 47 44 40 37 34 33 30 29 30 29 30 31 28 26 23 22 20 21 22 25 27 28
17 14 26 13 26 31 32 48 44 13 24 9 1 12 9 33 44 47 56 57 51 62 57 54 53 51 50 48 44 39 36 35 34 32 30 30 30 28 28 27 25 22 21 22 22 23 24 26 29
18 27 24 22 41 42 51 47 10 18 18 3 16 13 19 31 29 35 67 57 51 63 59 55 52 50 49 47 44 40 36 35 34 32 31 30 29 28 27 25 24 23 22 22 22 22 24 25 29
32 26 26 34 44 47 44 54 12 2 10 5 11 26 32 31 34 40 66 59 54 60 57 55 52 50 47 45 44 41 38 36 34 32 32 31 29 27 26 25 23 22 22 22 22 22 24 25 29
36 38 29 34 47 46 45 66 21 6 14 16 15 32 22 29 44 58 59 53 52 58 58 57 53 50 47 44 43 42 40 38 35 33 32 30 29 27 25 24 23 22 22 22 23 22 23 24 24
34 26 39 45 46 44 48 58 15 15 20 29 23 11 25 33 47 63 57 52 51 55 58 59 57 52 47 43 41 41 41 39 36 34 33 31 29 28 25 23 23 22 22 22 22 22 23 22 21
46 27 49 45 41 51 50 40 32 25 32 15 9 2 27 47 48 59 56 54 54 55 55 62 59 57 53 48 44 41 41 40 38 36 34 32 30 28 27 26 25 23 22 22 22 22 21 21 20
42 29 36 54 52 39 58 13 18 17 37 13 13 15 23 37 49 58 59 58 59 56 52 66 64 61 58 54 50 46 43 42 41 39 37 36 34 32 30 27 26 24 24 24 23 22 21 20 19
37 28 56 44 43 43 55 43 25 27 34 24 16 13 19 36 48 58 63 63 62 60 56 72 68 65 62 58 55 52 49 47 46 44 42 40 37 34 31 30 27 27 26 26 25 25 23 21 18
43 49 41 51 65 66 55 48 19 31 33 40 33 27 25 35 47 55 57 61 60 56 55 73 72 68 65 62 60 58 55 52 50 47 45 42 38 34 34 35 34 33 31 29 28 26 24 21 18
42 65 60 59 67 57 44 45 42 27 35 33 46 47 35 37 45 53 58 60 60 57 51 66 74 72 68 55 60 62 59 57 54 52 49 47 41 36 39 37 38 37 35 33 30 29 25 22 20
50 56 63 66 65 63 60 44 37 47 53 41 38 23 28 25 41 48 56 59 61 60 60 58 73 73 71 59 54 63 61 60 57 56 53 51 49 44 39 36 32 38 39 38 34 30 26 25 22
67 58 58 61 60 64 47 43 36 57 54 53 45 44 32 31 37 47 61 63 68 66 68 64 66 73 72 70 58 54 58 51 51 54 56 56 55 49 46 45 45 33 32 28 35 27 27 26 33
70 56 50 48 56 53 58 43 52 60 53 60 61 59 52 52 48 49 56 68 75 76 71 75 67 68 74 79 63 58 60 57 48 50 48 47 60 55 52 49 49 38 31 35 27 30 31 34 30
54 53 49 51 52 59 51 55 57 62 60 66 64 58 65 64 61 62 55 64 67 77 76 76 77 74 71 81 73 69 63 63 55 53 56 54 50 61 55 50 53 48 45 45 41 41 41 41 31
44 43 59 58 51 41 45 68 54 49 55 71 71 67 62 61 71 69 60 58 70 69 80 83 79 81 76 75 84 69 67 63 62 58 61 63 58 57 58 58 53 53 53 51 50 46 45 39 33
50 61 52 58 56 50 51 53 48 52 39 52 73 67 69 66 69 66 63 54 60 70 76 88 83 78 77 76 74 77 65 69 67 61 60 64 64 57 68 60 59 55 58 58 56 51 49 48 41
54 53 61 47 44 56 50 54 48 43 58 54 58 53 37 59 74 67 59 64 58 70 67 90 87 78 79 79 81 75 82 72 72 69 63 63 67 64 60 71 63 63 66 65 60 56 52 45 42
58 59 60 49 48 45 51 62 53 45 48 56 52 45 48 59 52 70 74 66 68 61 74 84 87 77 79 81 80 81 71 75 71 71 71 71 72 73 66 67 73 70 71 69 64 62 62 61 55
55 54 48 53 44 45 39 57 51 52 43 52 61 53 51 59 50 42 61 65 72 64 62 78 85 80 78 81 73 67 64 59 66 71 75 77 78 80 73 68 71 74 78 77 72 70 69 64 62
50 46 50 48 42 36 2 31 42 39 36 38 50 56 51 54 52 50 40 46 61 68 62 66 72 86 83 73 77 75 73 76 76 76 73 75 78 81 79 73 75 78 79 80 78 72 74 67 72
47 44 47 39 42 34 40 27 34 36 40 45 37 42 44 54 69 63 54 40 44 59 59 71 66 68 70 69 70 70 77 75 71 70 71 72 74 75 76 77 76 80 85 86 84 78 79 77 80
53 48 47 34 19 27 43 27 26 34 40 51 45 70 76 69 73 62 54 44 30 29 56 55 67 83 81 69 71 76 77 77 69 69 73 72 77 76 77 78 80 84 84 92 91 85 81 82 82
34 38 18 9 11 12 40 32 38 29 39 43 39 20 36 73 69 61 51 39 26 27 21 25 53 64 62 74 80 72 83 84 88 72 72 74 76 81 87 85 87 88 90 91 92 90 88 86 85
36 33 16 22 11 32 36 38 43 45 44 58 14 22 16 20 20 20 9 7 15 19 25 24 22 33 57 62 70 81 67 81 86 86 90 89 75 84 87 89 86 90 88 88 96 93 96 91 89
33 37 38 34 14 10 15 21 48 35 41 52 43 28 30 30 15 21 18 9 4 8 11 15 22 26 26 34 53 59 68 78 80 82 71 80 73 84 90 86 89 89 89 89 92 96 93 98 93
3 12 10 11 13 19 13 29 22 16 21 34 20 32 33 26 22 20 19 20 15 8 9 17 28 29 29 29 34 27 57 66 67 69 73 73 77 67 69 80 88 87 88 85 89 95 93 94 92
9 5 10 7 5 10 10 22 22 22 26 33 34 37 29 25 21 18 15 14 15 14 12 14 16 14 19 28 41 36 21 38 45 52 60 63 66 73 75 74 77 84 79 78 87 90 92 93 92
23 14 7 8 9 7 7 9 27 28 29 27 30 26 19 18 14 13 11 9 10 11 11 11 12 14 12 12 16 27 41 40 30 41 49 54 64 67 64 76 81 83 78 78 87 93 95 98 98
Wind_Direction_850mb
267 296 315 283 250 232 260 254 250 271 19 5 21 336 349 91 1 116 143 160 181 158 158 159 159 157 156 160 165 166 165 157 150 146 142 141 143 138 135 134 134 136 135 136 130 126 125 122 120
273 277 256 269 241 246 250 240 258 250 94 67 17 311 302 97 131 134 128 170 185 162 160 161 162 159 159 162 167 167 167 164 156 151 149 148 147 146 143 142 140 142 139 140 136 134 129 126 122
278 278 272 238 238 242 254 248 233 149 93 96 213 227 285 101 118 134 141 172 176 162 162 162 162 162 162 164 167 170 169 167 162 157 154 154 152 151 149 148 145 143 139 140 142 137 132 131 130
264 257 245 261 248 233 248 271 32 60 95 116 242 168 86 100 124 145 152 169 166 161 164 162 163 164 164 166 167 171 172 169 168 163 160 158 157 156 154 153 151 149 147 144 142 138 136 134 135
252 258 246 247 242 254 260 251 99 359 352 130 262 253 126 106 132 144 153 168 161 159 164 164 165 166 166 166 169 172 173 172 173 169 166 165 163 162 160 159 157 155 153 150 148 145 143 138 142
254 234 250 247 247 251 249 265 131 195 270 227 234 264 100 134 139 147 155 162 164 165 162 166 167 168 167 168 171 173 174 175 177 175 173 172 169 168 168 167 164 163 160 162 158 155 155 152 146
244 251 245 251 261 256 244 248 220 197 242 234 219 288 131 152 145 151 160 159 163 178 170 169 169 170 169 170 172 175 177 178 179 180 179 179 177 175 175 176 173 172 172 172 170 168 170 170 168
250 247 258 254 251 258 261 237 182 209 229 92 135 332 169 144 149 152 161 162 167 187 177 173 173 173 172 173 175 178 181 182 183 185 185 185 185 184 184 184 183 181 182 185 183 183 184 185 186
249 261 247 245 251 256 265 230 162 215 245 189 207 87 106 140 151 156 159 165 174 190 185 179 178 178 177 177 178 181 185 187 188 189 191 190 192 192 193 193 192 191 191 193 195 198 199 200 201
234 242 243 247 255 260 272 272 197 220 231 248 187 117 154 159 163 166 166 168 179 193 193 186 184 183 182 183 183 185 188 191 193 194 195 196 198 199 199 203 201 201 203 203 204 206 208 211 213
249 239 243 250 260 272 270 303 214 228 215 225 206 171 177 176 177 177 179 181 183 190 198 190 188 189 186 189 188 190 192 195 197 199 200 200 203 200 204 208 208 211 210 212 214 217 217 216 225
229 251 253 248 263 274 277 271 291 259 261 233 227 178 174 185 189 187 188 187 187 189 199 193 193 192 190 193 194 197 198 201 202 204 204 204 200 210 209 216 216 216 218 220 222 225 226 221 183
233 237 240 259 266 269 275 277 257 273 274 247 263 180 166 197 200 202 199 195 192 192 197 202 197 197 191 188 205 203 205 208 208 211 213 207 202 212 213 216 230 220 221 221 226 230 225 227 215
238 244 246 237 241 260 261 266 258 254 264 275 266 248 222 212 233 210 204 203 196 199 198 207 202 201 194 185 210 205 200 211 212 215 218 212 209 207 217 200 227 237 224 223 225 229 228 235 228
245 250 242 240 239 234 257 251 246 246 251 256 257 258 245 236 222 232 213 208 203 200 197 207 206 205 201 195 200 210 197 206 214 213 224 221 212 203 221 210 210 222 216 229 221 225 213 239 237
248 239 247 236 228 235 237 247 239 239 241 251 248 238 243 243 240 231 227 213 211 195 196 209 207 210 207 201 194 209 198 196 216 215 218 233 218 209 219 220 207 211 216 217 219 220 222 225 232
234 238 228 239 232 219 223 244 252 245 244 228 237 240 242 237 230 228 219 218 211 205 197 206 211 210 210 207 202 205 207 205 200 218 212 226 233 222 211 221 216 215 211 217 222 222 219 228 223
219 223 231 227 226 222 223 239 250 253 261 249 234 229 234 237 243 225 221 215 214 215 202 204 210 210 213 210 206 205 207 206 211 207 221 218 232 230 214 221 213 220 214 218 221 218 225 223 233
235 232 230 243 235 224 239 234 229 223 254 260 232 236 257 238 224 234 220 213 218 210 209 200 206 209 211 209 207 204 208 209 210 211 215 221 228 234 227 217 219 213 222 220 222 224 219 227 229
242 237 245 240 235 245 229 234 228 218 219 236 253 200 241 258 244 225 226 221 208 213 210 197 203 211 215 214 210 207 210 212 219 217 216 222 227 233 233 225 221 218 222 226 222 225 221 219 223
236 245 243 254 255 250 229 258 240 215 223 243 232 243 220 239 259 247 223 222 202 204 208 199 203 216 220 221 209 211 209 217 216 225 223 220 225 233 236 232 226 222 224 230 229 223 225 223 224
244 250 247 252 253 247 41 260 246 224 217 230 243 243 218 229 252 264 268 236 199 201 209 200 207 212 216 219 218 208 210 210 216 226 231 229 231 235 241 236 232 223 227 231 234 228 228 224 222
248 253 260 262 247 264 252 243 249 234 225 236 227 232 226 226 245 260 264 256 207 214 216 218 189 196 218 217 217 217 215 218 219 221 226 233 239 242 242 242 235 230 222 232 232 231 227 229 229
230 235 253 260 291 260 225 237 243 240 231 225 221 223 226 211 214 228 244 249 249 207 213 218 223 228 224 217 227 227 218 218 221 221 222 224 231 242 242 245 242 238 229 227 232 231 233 231 231
230 236 223 258 222 235 237 223 239 248 262 279 287 294 11 209 205 212 225 231 232 252 254 235 227 228 236 229 221 234 232 228 225 222 223 225 226 227 242 245 242 239 239 229 231 228 232 233 231
215 216 234 211 220 240 226 231 234 236 267 270 336 65 51 37 109 125 143 230 247 264 263 265 240 226 222 226 229 230 231 233 233 236 231 228 229 228 234 242 244 243 240 238 228 230 229 233 231
259 235 217 253 275 305 269 246 242 240 224 246 252 147 72 75 93 80 71 62 27 341 325 300 278 249 231 238 240 243 238 235 238 234 235 232 232 236 232 235 243 244 242 239 233 228 227 229 231
164 7 255 162 215 232 240 233 243 250 271 232 112 87 87 86 72 66 56 43 32 357 351 305 282 273 259 248 244 256 246 236 238 234 233 234 233 234 243 239 241 242 239 238 234 230 228 229 231
13 94 342 4 279 251 228 211 88 48 32 63 70 70 67 70 78 73 50 44 30 14 13 344 305 285 270 266 257 247 224 232 236 238 241 241 240 236 233 238 238 242 238 239 233 231 230 228 228
68 17 61 341 34 353 332 261 60 50 64 64 65 48 51 36 43 51 67 49 30 8 350 332 337 314 281 259 256 258 255 236 227 240 244 246 239 238 237 238 239 240 239 237 232 229 227 228 228